Weather History for KAEX - December, 2012

Change the Weather History Date:

Tuesday, December 4, 2012

  Actual Average Record
Temperature  
Mean Temperature 69 °F 52 °F  
Max Temperature 76 °F 62 °F 85 °F (1892)
Min Temperature 62 °F 41 °F 21 °F (1893)
Degree Days  
Heating Degree Days 0 14  
Month to date heating degree days 0 53  
Since 1 July heating degree days 367 378  
Cooling Degree Days 4    
Growing Degree Days 18 (Base 50)    
Moisture  
Dew Point 64 °F    
Average Humidity 87    
Maximum Humidity 100    
Minimum Humidity 74    
Precipitation  
Precipitation 0.25 in 0.24 in 2.50 in (1982)
Month to date precipitation 0.32 1.05  
Year to date precipitation 48.29 50.85  
Snow  
Snow 0.00 in - 0.20 in (2009)
Month to date snowfall 0.0  
Since 1 July snowfall 0.0  
Snow Depth 0.00 in    
Sea Level Pressure  
Sea Level Pressure 30.13 in    
Wind  
Wind Speed 6 mph (SSE)    
Max Wind Speed 15 mph    
Max Gust Speed 22 mph    
Visibility 9 miles    
Events Rain , Thunderstorm    
T = Trace of Precipitation, MM = Missing Value Source: NWS Daily Summary

Daily Weather History Graph

Daily Weather History Graph

Search for Another Location

Airport or City:

Trip Planner

Search our weather history database for the weather conditions in past years. The results will help you decide how hot, cold, wet, or windy it might be!

Date:

Astronomy

Dec. 04, 2012 Rise Set
Actual Time 6:54 AM CST 5:07 PM CST
Civil Twilight 6:27 AM CST 5:33 PM CST
Nautical Twilight 5:57 AM CST 6:03 PM CST
Astronomical Twilight 5:28 AM CST 6:33 PM CST
Moon 10:40 PM CST (12/4) 11:01 AM CST (12/4)
Length of Visible Light 11h 05m
Length of Day
10h 12m
Waning Gibbous, 69% of the Moon is Illuminated
Dec 4
Waning Gibbous
Dec 6
Last Quarter
Dec 13
New
Dec 19
First Quarter
Dec 28
Full

Hourly Weather History & Observations

Time (CST) Temp. Dew Point Humidity Pressure Visibility Wind Dir Wind Speed Gust Speed Precip Events Conditions
12:53 AM 68.0 °F 64.0 °F 87% 30.10 in 10.0 mi SSE 6.9 mph - 0.00 in   Overcast
1:53 AM 68.0 °F 64.0 °F 87% 30.10 in 10.0 mi SSE 5.8 mph - N/A   Mostly Cloudy
2:53 AM 66.9 °F 64.0 °F 90% 30.11 in 10.0 mi SSE 5.8 mph - N/A   Mostly Cloudy
3:53 AM 66.0 °F 64.0 °F 93% 30.12 in 10.0 mi Calm Calm - N/A   Mostly Cloudy
4:01 AM 66.2 °F 64.4 °F 94% 30.11 in 10.0 mi Calm Calm - N/A   Mostly Cloudy
4:53 AM 64.9 °F 63.0 °F 93% 30.10 in 8.0 mi SE 6.9 mph - N/A   Mostly Cloudy
5:02 AM 64.4 °F 62.6 °F 94% 30.09 in 8.0 mi SE 6.9 mph - N/A   Scattered Clouds
5:43 AM 66.2 °F 64.4 °F 94% 30.12 in 9.0 mi SSE 4.6 mph - N/A   Overcast
5:53 AM 66.0 °F 64.9 °F 96% 30.13 in 9.0 mi SSE 6.9 mph - N/A   Overcast
6:24 AM 64.4 °F 62.6 °F 94% 30.13 in 7.0 mi SSE 3.5 mph - N/A   Mostly Cloudy
6:53 AM 63.0 °F 62.1 °F 97% 30.15 in 5.0 mi SE 4.6 mph - N/A   Partly Cloudy
7:53 AM 64.9 °F 64.0 °F 97% 30.15 in 4.0 mi SE 5.8 mph - 0.01 in   Partly Cloudy
8:53 AM 70.0 °F 64.9 °F 84% 30.16 in 10.0 mi SSE 9.2 mph - N/A   Clear
9:23 AM 71.6 °F 66.2 °F 83% 30.16 in 10.0 mi South 5.8 mph - N/A   Mostly Cloudy
9:53 AM 72.0 °F 66.0 °F 81% 30.18 in 10.0 mi South 5.8 mph - N/A   Overcast
10:03 AM 73.4 °F 66.2 °F 78% 30.17 in 10.0 mi SSE 8.1 mph - N/A   Overcast
10:53 AM 73.9 °F 66.0 °F 76% 30.17 in 10.0 mi South 6.9 mph - N/A   Overcast
11:29 AM 75.2 °F 66.2 °F 73% 30.15 in 10.0 mi SSW 8.1 mph - 0.00 in Rain Light Rain
11:37 AM 75.2 °F 66.2 °F 73% 30.15 in 10.0 mi South 9.2 mph - 0.00 in   Mostly Cloudy
11:53 AM 75.0 °F 66.0 °F 73% 30.15 in 10.0 mi South 9.2 mph - 0.00 in   Mostly Cloudy
12:26 PM 75.2 °F 66.2 °F 73% 30.12 in 10.0 mi South 8.1 mph - N/A   Mostly Cloudy
12:53 PM 73.0 °F 66.0 °F 79% 30.12 in 10.0 mi South 6.9 mph - N/A Thunderstorm Mostly Cloudy
1:14 PM 71.6 °F 66.2 °F 83% 30.09 in 10.0 mi SSE 5.8 mph - 0.00 in Rain Light Rain
1:53 PM 72.0 °F 66.9 °F 84% 30.09 in 10.0 mi SE 6.9 mph - 0.00 in   Scattered Clouds
2:53 PM 73.0 °F 66.9 °F 81% 30.10 in 10.0 mi SSE 4.6 mph - N/A   Clear
3:53 PM 70.0 °F 66.0 °F 87% 30.10 in 10.0 mi SE 6.9 mph - N/A   Clear
4:53 PM 70.0 °F 66.0 °F 87% 30.11 in 10.0 mi SSE 8.1 mph - 0.00 in Rain Light Rain
5:53 PM 69.1 °F 66.0 °F 90% 30.11 in 10.0 mi SSE 11.5 mph - 0.00 in   Mostly Cloudy
6:53 PM 66.0 °F 62.1 °F 87% 30.11 in 10.0 mi SSE 8.1 mph 18.4 mph 0.00 in   Mostly Cloudy
7:00 PM 66.2 °F 62.6 °F 88% 30.10 in 10.0 mi Variable 6.9 mph - N/A   Partly Cloudy
7:19 PM 66.2 °F 62.6 °F 88% 30.12 in 10.0 mi SSW 4.6 mph - N/A   Mostly Cloudy
7:28 PM 66.2 °F 62.6 °F 88% 30.11 in 10.0 mi SSE 9.2 mph - N/A   Scattered Clouds
7:53 PM 64.9 °F 61.0 °F 87% 30.14 in 10.0 mi ESE 5.8 mph - N/A   Clear
8:53 PM 64.9 °F 61.0 °F 87% 30.16 in 10.0 mi SSE 5.8 mph - N/A   Mostly Cloudy
9:34 PM 64.4 °F 60.8 °F 88% 30.15 in 10.0 mi NNE 9.2 mph - N/A   Overcast
9:41 PM 64.4 °F 60.8 °F 88% 30.16 in 10.0 mi NNE 8.1 mph 18.4 mph N/A Thunderstorm Overcast
9:53 PM 64.9 °F 61.0 °F 87% 30.18 in 10.0 mi NE 8.1 mph - N/A Thunderstorm Overcast
10:02 PM 66.2 °F 60.8 °F 83% 30.17 in 10.0 mi Variable 3.5 mph - N/A   Overcast
10:14 PM 64.4 °F 60.8 °F 88% 30.16 in 3.0 mi East 10.4 mph - 0.17 in Rain Heavy Rain
10:53 PM 63.0 °F 61.0 °F 93% 30.17 in 7.0 mi ENE 4.6 mph - 0.24 in Rain Light Rain
11:09 PM 62.6 °F 60.8 °F 94% 30.17 in 10.0 mi NE 4.6 mph - 0.00 in Rain Light Rain
11:53 PM 62.1 °F 60.1 °F 93% 30.17 in 10.0 mi Calm Calm - 0.00 in   Overcast